Minneapolis, MN

6:47 PM CDT on October 01, 2016 (GMT -0500)
Minneapolis-Saint Paul International

Weather History for KMSP - October, 2013

Change the Weather History Date:

Tuesday, October 15, 2013

  Actual Average Record
Temperature  
Mean Temperature 51 °F 49 °F  
Max Temperature 55 °F 59 °F 85 °F (1968)
Min Temperature 46 °F 40 °F 21 °F (1876)
Degree Days  
Heating Degree Days 14 16  
Month to date heating degree days 113 197  
Since 1 July heating degree days 179 370  
Cooling Degree Days 0 0  
Month to date cooling degree days 2 3  
Year to date cooling degree days 983 750  
Moisture  
Dew Point 49 °F    
Average Humidity 97    
Maximum Humidity 100    
Minimum Humidity 93    
Precipitation  
Precipitation 0.62 in 0.08 in 1.24 in (1966)
Month to date precipitation 2.50 1.34  
Year to date precipitation 30.29 26.59  
Snow  
Snow 0.00 in 0.00 in 0.30 in (1992)
Month to date snowfall 0.0 0.0  
Since 1 July snowfall T T  
Since 1 September snowfall 0.0 T  
Snow Depth 0.00 in    
Sea Level Pressure  
Sea Level Pressure 29.75 in    
Wind  
Wind Speed 12 mph (SSE)    
Max Wind Speed 25 mph    
Max Gust Speed 32 mph    
Visibility 5 miles    
Events Rain    
T = Trace of Precipitation, MM = Missing Value Source: NWS Daily Summary

Daily Weather History Graph

Daily Weather History Graph

Search for Another Location

Airport or City:

Trip Planner

Search our weather history database for the weather conditions in past years. The results will help you decide how hot, cold, wet, or windy it might be!

Date:

Astronomy

Oct. 15, 2013 Rise Set
Actual Time 7:28 AM CDT 6:27 PM CDT
Civil Twilight 6:59 AM CDT 6:57 PM CDT
Nautical Twilight 6:25 AM CDT 7:31 PM CDT
Astronomical Twilight 5:51 AM CDT 8:04 PM CDT
Moon 4:40 PM CDT (10/15) 3:43 AM CDT (10/15)
Length of Visible Light 11h 57m
Length of Day
10h 58m
Waxing Gibbous, 88% of the Moon is Illuminated
Oct 15
Waxing Gibbous
Oct 18
Full
Oct 26
Last Quarter
Nov 3
New
Nov 9
First Quarter

Hourly Weather History & Observations

Time (CDT) Temp. Windchill Dew Point Humidity Pressure Visibility Wind Dir Wind Speed Gust Speed Precip Events Conditions
12:53 AM 50.0 °F - 48.0 °F 93% 29.92 in 4.0 mi East 17.3 mph 25.3 mph 0.22 in Rain Light Rain
1:07 AM 50.0 °F - 48.2 °F 94% 29.91 in 2.5 mi East 15.0 mph 24.2 mph 0.04 in Rain Heavy Rain
1:29 AM 48.2 °F - 48.2 °F 100% 29.90 in 2.5 mi East 16.1 mph - 0.13 in Rain Heavy Rain
1:36 AM 48.2 °F - 48.2 °F 100% 29.90 in 2.5 mi East 13.8 mph 21.9 mph 0.17 in Rain Heavy Rain
1:53 AM 48.9 °F - 48.0 °F 97% 29.91 in 3.0 mi East 17.3 mph 23.0 mph 0.26 in Rain Rain
2:16 AM 48.2 °F - 48.2 °F 100% 29.89 in 2.5 mi East 15.0 mph - 0.07 in Rain Heavy Rain
2:30 AM 48.2 °F - 48.2 °F 100% 29.86 in 3.0 mi East 19.6 mph - 0.14 in Rain Heavy Rain
2:38 AM 48.2 °F - 48.2 °F 100% 29.84 in 3.0 mi East 21.9 mph 29.9 mph 0.17 in Rain Rain
2:53 AM 48.9 °F - 46.9 °F 93% 29.83 in 4.0 mi East 20.7 mph 31.1 mph 0.20 in Rain Rain
3:53 AM 50.0 °F - 48.0 °F 93% 29.80 in 10.0 mi East 20.7 mph 27.6 mph 0.02 in   Overcast
4:40 AM 50.0 °F - 48.2 °F 94% 29.77 in 8.0 mi ESE 18.4 mph 26.5 mph 0.00 in Rain Light Rain
4:53 AM 50.0 °F - 48.0 °F 93% 29.77 in 9.0 mi ESE 18.4 mph 24.2 mph 0.00 in Rain Light Rain
5:11 AM 50.0 °F - 48.2 °F 94% 29.75 in 4.0 mi ESE 16.1 mph 24.2 mph 0.01 in Rain Light Rain
5:53 AM 50.0 °F - 48.0 °F 93% 29.74 in 4.0 mi ESE 19.6 mph 28.8 mph 0.01 in Rain Light Rain
6:51 AM 50.0 °F - 48.2 °F 94% 29.72 in 7.0 mi ESE 9.2 mph - 0.00 in   Overcast
6:53 AM 50.0 °F - 48.9 °F 96% 29.73 in 7.0 mi ESE 10.4 mph - 0.00 in   Overcast
7:00 AM 51.8 °F - 48.2 °F 88% 29.71 in 7.0 mi ESE 10.4 mph - N/A   Overcast
7:12 AM 51.8 °F - 50.0 °F 94% 29.71 in 7.0 mi SE 9.2 mph 16.1 mph N/A   Overcast
7:53 AM 51.1 °F - 50.0 °F 96% 29.71 in 6.0 mi ESE 13.8 mph - N/A   Overcast
8:09 AM 51.8 °F - 50.0 °F 94% 29.70 in 4.0 mi SE 10.4 mph - 0.00 in Rain Light Rain
8:23 AM 51.8 °F - 51.8 °F 100% 29.70 in 2.0 mi SE 10.4 mph - 0.01 in Rain Light Rain
8:39 AM 51.8 °F - 51.8 °F 100% 29.69 in 4.0 mi ESE 11.5 mph - 0.01 in Rain Light Rain
8:53 AM 52.0 °F - 51.1 °F 97% 29.70 in 3.0 mi SE 9.2 mph - 0.01 in   Overcast
9:20 AM 53.6 °F - 51.8 °F 94% 29.68 in 4.0 mi SE 9.2 mph - N/A   Overcast
9:53 AM 54.0 °F - 52.0 °F 93% 29.69 in 5.0 mi SE 6.9 mph - N/A   Overcast
10:07 AM 53.6 °F - 53.6 °F 100% 29.68 in 4.0 mi SE 8.1 mph - N/A   Overcast
10:16 AM 53.6 °F - 53.6 °F 100% 29.68 in 4.0 mi SSE 8.1 mph - N/A   Overcast
10:36 AM 53.6 °F - 53.6 °F 100% 29.68 in 5.0 mi South 10.4 mph - 0.00 in   Overcast
10:53 AM 54.0 °F - 53.1 °F 97% 29.69 in 8.0 mi South 6.9 mph - 0.00 in   Overcast
11:01 AM 53.6 °F - 53.6 °F 100% 29.68 in 10.0 mi South 8.1 mph - N/A   Overcast
11:18 AM 53.6 °F - 51.8 °F 94% 29.68 in 10.0 mi South 9.2 mph 19.6 mph N/A   Overcast
11:41 AM 53.6 °F - 51.8 °F 94% 29.68 in 2.5 mi SSW 8.1 mph 16.1 mph 0.00 in   Light Drizzle
11:45 AM 53.6 °F - 51.8 °F 94% 29.68 in 5.0 mi SSW 9.2 mph 16.1 mph 0.00 in Rain Light Rain
11:53 AM 54.0 °F - 51.1 °F 90% 29.69 in 5.0 mi SSW 11.5 mph 17.3 mph 0.00 in Rain Light Rain
12:10 PM 53.6 °F - 51.8 °F 94% 29.69 in 2.5 mi South 10.4 mph - 0.00 in Rain Light Rain
12:23 PM 51.8 °F - 50.0 °F 94% 29.68 in 4.0 mi SSW 11.5 mph 19.6 mph 0.01 in Rain Light Rain
12:35 PM 51.8 °F - 50.0 °F 94% 29.69 in 2.0 mi SSW 9.2 mph - 0.02 in Rain Light Rain
12:53 PM 51.1 °F - 50.0 °F 96% 29.70 in 2.0 mi SSW 11.5 mph - 0.03 in Rain Light Rain
1:23 PM 50.0 °F - 48.2 °F 94% 29.69 in 2.0 mi South 9.2 mph - 0.03 in Rain Light Rain
1:44 PM 50.0 °F - 48.2 °F 94% 29.69 in 2.0 mi SSW 10.4 mph - 0.03 in Rain Light Rain
1:53 PM 50.0 °F - 48.9 °F 96% 29.70 in 3.0 mi SSW 6.9 mph - 0.04 in Rain Light Rain
2:00 PM 50.0 °F - 48.2 °F 94% 29.69 in 3.0 mi South 6.9 mph - 0.00 in Rain Light Rain
2:26 PM 50.0 °F - 48.2 °F 94% 29.69 in 4.0 mi SSW 9.2 mph - 0.02 in Rain Light Rain
2:53 PM 50.0 °F - 48.9 °F 96% 29.70 in 7.0 mi SSW 8.1 mph - 0.04 in Rain Light Rain
3:53 PM 50.0 °F - 48.0 °F 93% 29.71 in 10.0 mi South 5.8 mph - 0.01 in Rain Light Rain
4:05 PM 50.0 °F - 48.2 °F 94% 29.70 in 10.0 mi SSW 5.8 mph - 0.00 in   Overcast
4:53 PM 50.0 °F - 48.0 °F 93% 29.71 in 10.0 mi SW 5.8 mph - 0.00 in   Overcast
5:53 PM 50.0 °F - 48.0 °F 93% 29.72 in 5.0 mi SSW 4.6 mph - 0.00 in   Light Drizzle
6:34 PM 50.0 °F - 48.2 °F 94% 29.71 in 3.0 mi SSW 5.8 mph - 0.00 in   Light Drizzle
6:53 PM 48.9 °F - 48.0 °F 97% 29.73 in 3.0 mi SW 4.6 mph - 0.00 in   Light Drizzle
7:15 PM 48.2 °F - 48.2 °F 100% 29.72 in 3.0 mi SW 5.8 mph - 0.00 in   Light Drizzle
7:34 PM 48.2 °F - 48.2 °F 100% 29.73 in 5.0 mi SW 5.8 mph - 0.00 in   Light Drizzle
7:49 PM 50.0 °F - 48.2 °F 94% 29.74 in 4.0 mi SW 5.8 mph - 0.00 in   Light Drizzle
7:53 PM 50.0 °F - 48.9 °F 96% 29.75 in 4.0 mi West 5.8 mph - 0.00 in   Light Drizzle
8:05 PM 50.0 °F - 48.2 °F 94% 29.74 in 2.5 mi NW 9.2 mph - 0.00 in Rain Light Rain
8:13 PM 50.0 °F - 48.2 °F 94% 29.74 in 2.0 mi NNW 9.2 mph - 0.00 in   Light Drizzle
8:40 PM 50.0 °F - 48.2 °F 94% 29.75 in 2.5 mi NNW 13.8 mph 18.4 mph 0.01 in   Light Drizzle
8:48 PM 50.0 °F - 48.2 °F 94% 29.76 in 3.0 mi NNW 10.4 mph - 0.01 in   Light Drizzle
8:53 PM 50.0 °F - 48.9 °F 96% 29.77 in 3.0 mi NNW 13.8 mph - 0.01 in   Light Drizzle
9:22 PM 48.2 °F - 48.2 °F 100% 29.77 in 3.0 mi NNW 13.8 mph 20.7 mph 0.00 in Rain Light Rain
9:53 PM 48.9 °F - 48.0 °F 97% 29.79 in 9.0 mi NNW 15.0 mph 24.2 mph 0.00 in   Light Drizzle
10:53 PM 48.0 °F - 46.0 °F 93% 29.81 in 4.0 mi North 16.1 mph 23.0 mph 0.00 in Rain Light Rain
10:56 PM 48.2 °F - 46.4 °F 93% 29.80 in 3.0 mi North 16.1 mph 23.0 mph 0.00 in Rain Light Rain
11:02 PM 46.4 °F 40.1 °F 46.4 °F 100% 29.81 in 4.0 mi North 15.0 mph 20.7 mph 0.00 in Rain Light Rain
11:05 PM 46.4 °F 39.5 °F 46.4 °F 100% 29.81 in 4.0 mi North 17.3 mph 21.9 mph 0.00 in Rain Light Rain
11:12 PM 46.4 °F 40.4 °F 46.4 °F 100% 29.81 in 4.0 mi North 13.8 mph - 0.00 in Rain Light Rain
11:31 PM 46.4 °F 41.1 °F 46.4 °F 100% 29.81 in 4.0 mi North 11.5 mph 20.7 mph 0.00 in Rain Light Rain
11:53 PM 46.9 °F - 46.0 °F 97% 29.83 in 4.0 mi North 12.7 mph - 0.00 in Rain Light Rain